Regional Weather Roundup
Issued by NWS

Home | Current Version | Previous Version | Text Only | Print | Product List | Glossary On
Versions: 1 2 3 4 5 6 7 8 9 10 11 12 13 14 15 16 17 18 19 20 21 22 23 24 25 26 27 28 29 30 31 32 33 34 35 36 37 38 39 40 41 42 43 44 45 46 47 48 49 50
710
ASUS44 KLIX 270510
RWRLA
LOUISIANA WEATHER ROUNDUP
NATIONAL WEATHER SERVICE NEW ORLEANS LA
1100 PM CST MON JAN 26 2015

NOTE: "FAIR" INDICATES FEW OR NO CLOUDS BELOW 12,000 FEET WITH NO
      SIGNIFICANT WEATHER AND/OR OBSTRUCTIONS TO VISIBILITY.
      SKY/WX - SKY CONDITION AND SIGNIFICANT WEATHER.
      TMP - AIR TEMPERATURE.    DP   - DEWPOINT TEMPERATURE.
      RH  - RELATIVE HUMIDITY.  PRES - PRESSURE.
      HX  - HEAT INDEX.         WCI  - WIND CHILL INDEX.

*  THESE STATIONS ARE NOT NWS OR FAA STATIONS AND ARE NOT UNDER
   NWS QUALITY CONTROL.

LAZ040-048-061>063-065-066-069-270600-
SOUTHEAST LOUISIANA

CITY           SKY/WX    TMP DP  RH WIND       PRES   REMARKS
N.O. AUDUBON     N/A     48 N/A N/A MISG        N/A
N.O. INTL ARPT PTCLDY    48  37  65 SW8       30.10S
N.O. LAKEFRONT CLEAR     55  40  56 W13       30.09F
N.O. DOWNTOWN* FAIR      54  34  47 S5        30.10F
SLIDELL        CLEAR     45  37  73 CALM      30.07F
BATON ROUGE    CLEAR     47  36  65 SW7       30.10R
BOOTHVILLE     CLEAR     51  45  79 W8        30.10F
BELLE CHASSE   PTCLDY    48  37  65 W5        30.09F
BOGALUSA*        N/A     40  36  85 CALM      30.09R
GALLIANO*      CLEAR     51  45  81 MISG      30.12S
NEW ROADS*     FAIR      43  38  83 CALM      30.11R
GONZALES*      FAIR      48  38  66 SW3       30.10S
HAMMOND*       CLEAR     43  36  75 CALM      30.10S
HOUMA*         CLEAR     45  43  91 SW5       30.12S
PORT FOURCHON* CLEAR     54  48  82 W9        30.16R

$$

LAZ041-044-053-054-270600-
SOUTHWEST LOUISIANA

CITY           SKY/WX    TMP DP  RH WIND       PRES   REMARKS
LAKE CHARLES   PTCLDY    51  43  74 W6        30.13S
LAFAYETTE      CLEAR     45  42  89 SW5       30.12R
PATTERSON      CLEAR     46  43  87 SW8       30.14S
SALT POINT       N/A     52  50  93 W7        30.13S
NEW IBERIA     CLEAR     46  43  89 SW6       30.13S
CHENAULT AIRPK FAIR      55  39  56 W8        30.13F

$$

LAZ027-028-270600-
CENTRAL LOUISIANA

CITY           SKY/WX    TMP DP  RH WIND       PRES   REMARKS
FORT POLK      CLEAR     52  38  58 SW6       30.09F
ALEXANDRIA INT CLEAR     46  37  71 CALM      30.08S
ALEXANDRIA     CLEAR     38  36  92 CALM      30.09S

$$

LAZ001-002-270600-
NORTHWEST LOUISIANA

CITY           SKY/WX    TMP DP  RH WIND       PRES   REMARKS
SHREVEPORT     CLEAR     46  37  71 CALM      30.06S
BARKSDALE AFB  NOT AVBL
DTN SHREVEPORT CLEAR     45  34  65 CALM      30.07R

$$

LAZ014-016-270600-
NORTHEAST LOUISIANA

CITY           SKY/WX    TMP DP  RH WIND       PRES   REMARKS
MONROE         CLEAR     48  35  60 SW5       30.06F
TALLULAH       CLEAR     40  34  79 SW3       30.06F

$$




USA.gov is the U.S. government's official web portal to all federal, state and local government web resources and services.